Location: Unspecified
(40.7945°N, 111.1337°W)
Time: 16:27:59
(UTC-06:00)

CZ-3 Stage 3 - Visible Passes

Search period start: 25 June 2017 00:00
Search period end: 05 July 2017 00:00
Orbit: 417 x 34780 km, 30.9° (Epoch: 24 June)

Date Brightness Start Highest point End Pass type
(mag) Time Alt. Az. Time Alt. Az. Time Alt. Az.
25 Jun 10.0 21:08:39 10° WNW 22:30:32 42° WSW 02:54:02 10° WSW visible
26 Jun 8.2 17:21:54 10° W 17:59:56 73° S 02:01:04 15° SSW visible
27 Jun 6.5 13:45:16 10° SW 19:53:26 33° SE 22:33:45 12° SSE visible
28 Jun 10.1 20:59:20 10° WNW 22:19:53 42° WSW 02:39:43 10° WSW visible
29 Jun 8.2 17:12:37 10° W 17:50:02 73° S 01:54:49 13° SSW visible
30 Jun 6.4 13:35:58 10° SW 19:42:10 32° SE 22:27:33 10° SSE visible
01 Jul 10.2 20:50:03 10° WNW 22:09:17 41° WSW 02:25:22 10° WSW visible
02 Jul 8.1 17:03:21 10° W 17:40:09 73° S 01:48:41 11° SSW visible
03 Jul 6.4 13:26:40 10° SW 19:30:54 32° SE 22:17:11 10° SSE visible
